Weather Roundup
Issued by NWS Chicago, IL

Home | Current Version | Previous Version | Graphics & Text | Print | Product List | Glossary On
Versions: 1 2 3 4 5 6 7 8 9 10 11 12 13 14 15 16 17 18 19 20 21 22 23 24 25 26 27 28 29 30 31 32 33 34 35 36 37 38 39 40 41 42 43 44 45 46 47 48 49 50
000
NZUS59 KLOT 270010
HRRLOT

CHICAGO AREA WEATHER ROUNDUP
NATIONAL WEATHER SERVICE CHICAGO/ROMEOVILLE IL
600 PM CST WED NOV 26 2014

NOTE: "FAIR" INDICATES FEW OR NO CLOUDS BELOW 12,000 FEET WITH NO
SIGNIFICANT WEATHER AND/OR OBSTRUCTIONS TO VISIBILITY.

* THESE STATIONS ARE NOT UNDER NWS QUALITY CONTROL. THEY ALSO MAY NOT
  REPORT WEATHER SUCH AS PRECIPITATION OR FOG.

ILZ005-006-012>014-019>023-270100-
NORTHEAST ILLINOIS

CITY           SKY/WX    TMP DP  RH WIND       PRES   REMARKS
OHARE          CLOUDY    29  21  72 CALM      30.12R
6HR MIN TEMP:  27; 6HR MAX TEMP:  29;

MIDWAY         CLOUDY    30  21  69 NE7       30.12S WCI  23
6HR MIN TEMP:  27; 6HR MAX TEMP:  30;

AURORA         CLOUDY    23  18  81 NW5       30.13R WCI  17
6HR MIN TEMP:  21; 6HR MAX TEMP:  28;

LANSING*       CLOUDY    28  20  73 NE6       30.13R WCI  21
JOLIET*        CLOUDY    26  19  77 NE3       30.13S
WAUKEGAN       CLOUDY    27  22  81 NW6       30.12S WCI  20
6HR MIN TEMP:  26; 6HR MAX TEMP:  29;

DUPAGE AIRPORT CLOUDY    27  20  75 N3        30.11S
6HR MIN TEMP:  24; 6HR MAX TEMP:  28;

WHEELING       CLOUDY    29  23  78 N5        30.14S WCI  24
6HR MIN TEMP:  27; 6HR MAX TEMP:  29;

KANKAKEE*      CLOUDY   N/A N/A N/A NE7       30.12S
MORRIS*        CLOUDY    27  21  80 NE3       30.13R
LEWIS AIRPORT* CLOUDY    26  19  77 E3        30.12S
NORTHERLY IS     N/A     29  21  72 E7          N/A  WCI  22
$$

WIZ051-052-058>065-066-070>072-270100-
SOUTHEAST WISCONSIN

CITY           SKY/WX    TMP DP  RH WIND       PRES   REMARKS
MILWAUKEE      CLOUDY    30  20  66 N10       30.14R WCI  21
6HR MIN TEMP:  27; 6HR MAX TEMP:  31;

KENOSHA*       CLOUDY    28  24  85 N8        30.13S WCI  20
RACINE*        CLOUDY    29  23  78 NW6       30.15S WCI  23
BURLINGTON     CLOUDY    22  20  91 NW9       30.15R WCI  12
WAUKESHA       CLOUDY    21  19  93 NW9       30.16R FOG     WCI  11
WEST BEND      MOCLDY    23  19  86 NW3       30.16R
$$

INZ001>003-010>013-019-020-270100-
NORTHWEST INDIANA

CITY           SKY/WX    TMP DP  RH WIND       PRES   REMARKS
GARY*          NOT AVBL
MICHIGAN CITY* NOT AVBL
RENSSELAER*    NOT AVBL
VALPARAISO     CLOUDY    26  19  74 NE5       30.12R WCI  20
$$

LMZ740>746-270100-
SOUTHERN LAKE MICHIGAN

STATION/POSITION TIME  SKY/WX   TEMP WIND        PRES    VSBY
                                AIR  DIR/SP/G
                 (UTC)          (F)  (DEG/KT/KT) (MB)    (MI)
HARRISON CRIB    0000            29   50/  6/  8   N/A
BURNHAM HARBOR   0000            29   40/  4/  9   N/A
CALUMET HARBOR   0000            29   20/  6/  9 1018.9R
BURNS HARBOR     NOT AVBL
MICHIGAN CITY    0000            27   60/  7/  9   N/A
$$

ABBREVIATIONS USED IN REMARKS
   TC - TEMPERATURE IN CELSIUS
  WCI - WIND CHILL INDEX
   HX - HEAT INDEX
  VSB - VISIBILITY
$$


USA.gov is the U.S. government's official web portal to all federal, state and local government web resources and services.